DM5RC Weather Reports


time (UTC)temp
C
wind
direction
speed
KPH
gust
KPH
rain 1hr
cm
rain 24hr
cm
rain mn
cm
humidity
%
barometer
mb
20260504004813 15 264 3.2 4.8 0.00 0.00 0.00 63 1010.6
20260504004315 15 261 3.2 3.2 0.00 0.00 0.00 63 1010.5
20260504003816 15 257 1.6 3.2 0.00 0.00 0.00 63 1010.4
20260504003333 15 257 0.0 1.6 0.00 0.00 0.00 61 1010.4
20260504002833 16 320 0.0 1.6 0.00 0.00 0.00 61 1010.4
20260504002353 16 320 0.0 1.6 0.00 0.00 0.00 60 1010.4
20260504001814 16 320 0.0 0.0 0.00 0.00 0.00 60 1010.4
20260504001315 16 320 0.0 1.6 0.00 0.00 0.00 59 1010.4
20260504000838 16 320 0.0 1.6 0.00 0.00 0.00 59 1010.5
20260504000340 16 320 0.0 1.6 0.00 0.00 0.00 57 1010.4
20260503235821 16 320 0.0 3.2 0.00 0.00 0.00 57 1010.4
20260503235323 16 320 1.6 3.2 0.00 0.00 0.00 57 1010.4
20260503234825 17 320 0.0 1.6 0.00 0.00 0.00 57 1010.5
20260503234345 17 320 0.0 1.6 0.00 0.00 0.00 56 1010.4
20260503233842 17 320 0.0 1.6 0.00 0.00 0.00 55 1010.5
20260503233342 17 320 0.0 1.6 0.00 0.00 0.00 55 1010.5
20260503232821 17 320 0.0 1.6 0.00 0.00 0.00 53 1010.6
20260503232323 18 328 0.0 3.2 0.00 0.00 0.00 53 1010.6
20260503231824 18 328 0.0 3.2 0.00 0.00 0.00 53 1010.6
20260503231322 18 266 1.6 3.2 0.00 0.00 0.00 52 1010.6
20260503230824 18 264 0.0 3.2 0.00 0.00 0.00 51 1010.6
20260503230326 19 257 0.0 3.2 0.00 0.00 0.00 50 1010.5
20260503225829 19 269 0.0 1.6 0.00 0.00 0.00 49 1010.4
20260503225331 19 269 0.0 6.4 0.00 0.00 0.00 49 1010.3
20260503224813 19 272 0.0 8.0 0.00 0.00 0.00 49 1010.4
20260503224316 19 255 1.6 6.4 0.00 0.00 0.00 49 1010.3
20260503223819 19 272 1.6 6.4 0.00 0.00 0.00 49 1010.2
20260503223322 19 231 1.6 8.0 0.00 0.00 0.00 49 1010.2
20260503222907 19 245 3.2 8.0 0.00 0.00 0.00 49 1010.1
20260503222325 19 224 4.8 8.0 0.00 0.00 0.00 49 1010.1
20260503221847 19 232 1.6 8.0 0.00 0.00 0.00 49 1010.0
20260503221320 19 210 1.6 8.0 0.00 0.00 0.00 48 1009.9
20260503220843 19 233 1.6 6.4 0.00 0.00 0.00 48 1009.9
20260503220324 19 202 3.2 8.0 0.00 0.00 0.00 47 1009.9
20260503215824 19 202 1.6 8.0 0.00 0.00 0.00 47 1009.9
20260503215324 19 210 3.2 6.4 0.00 0.00 0.00 47 1009.9
20260503214824 19 209 1.6 4.8 0.00 0.00 0.00 46 1009.9
20260503214325 19 195 3.2 4.8 0.00 0.00 0.00 46 1009.9
20260503213824 19 169 3.2 6.4 0.00 0.00 0.00 46 1009.9
20260503213316 19 237 3.2 6.4 0.00 0.00 0.00 45 1009.8
20260503212817 20 219 3.2 8.0 0.00 0.00 0.00 45 1009.8
20260503212326 20 216 1.6 8.0 0.00 0.00 0.00 45 1009.8
20260503211826 20 187 1.6 4.8 0.00 0.00 0.00 45 1009.8
20260503211326 20 145 1.6 6.4 0.00 0.00 0.00 44 1009.8
20260503210847 20 217 1.6 6.4 0.00 0.00 0.00 44 1009.8
20260503210349 20 147 1.6 6.4 0.00 0.00 0.00 44 1009.8
20260503205829 20 186 1.6 6.4 0.00 0.00 0.00 44 1009.8
20260503205324 20 225 1.6 6.4 0.00 0.00 0.00 43 1009.8
20260503204848 20 244 1.6 6.4 0.00 0.00 0.00 43 1009.9
20260503204330 20 209 1.6 8.0 0.00 0.00 0.00 43 1009.9
20260503203813 20 139 1.6 8.0 0.00 0.00 0.00 43 1009.9
20260503203316 20 212 1.6 4.8 0.00 0.00 0.00 43 1009.9
20260503202820 20 209 3.2 6.4 0.00 0.00 0.00 42 1009.9
20260503202322 20 196 1.6 6.4 0.00 0.00 0.00 42 1009.9
20260503201824 20 198 1.6 4.8 0.00 0.00 0.00 42 1009.9
20260503201347 20 153 1.6 4.8 0.00 0.00 0.00 42 1009.9
20260503200828 20 196 1.6 4.8 0.00 0.00 0.00 42 1009.9
20260503200329 21 222 1.6 4.8 0.00 0.00 0.00 42 1009.9
20260503195831 21 168 1.6 8.0 0.00 0.00 0.00 42 1009.9
20260503195314 21 195 1.6 8.0 0.00 0.00 0.00 42 1009.9
20260503194816 21 212 1.6 4.8 0.00 0.00 0.00 41 1010.0
20260503194318 21 205 1.6 4.8 0.00 0.00 0.00 41 1010.1
20260503193841 21 202 1.6 3.2 0.00 0.00 0.00 41 1010.1
20260503193322 21 212 0.0 4.8 0.00 0.00 0.00 40 1010.0
20260503192827 21 198 0.0 3.2 0.00 0.00 0.00 40 1010.0
20260503192331 21 205 1.6 3.2 0.00 0.00 0.00 40 1010.0
20260503191814 21 169 1.6 4.8 0.00 0.00 0.00 40 1010.0
20260503191316 22 139 1.6 4.8 0.00 0.00 0.00 39 1010.1
20260503190838 22 146 1.6 4.8 0.00 0.00 0.00 39 1010.0
20260503190320 22 151 1.6 4.8 0.00 0.00 0.00 38 1010.0
20260503185822 22 161 1.6 3.2 0.00 0.00 0.00 37 1010.0
20260503185324 22 215 1.6 3.2 0.00 0.00 0.00 37 1010.0
20260503184830 23 192 1.6 4.8 0.00 0.00 0.00 36 1010.0
20260503184334 23 217 0.0 4.8 0.00 0.00 0.00 35 1010.0
20260503183857 23 225 0.0 4.8 0.00 0.00 0.00 35 1009.9
20260503183320 23 205 1.6 4.8 0.00 0.00 0.00 35 1009.8
20260503182844 23 191 1.6 4.8 0.00 0.00 0.00 34 1009.8
20260503182322 23 184 1.6 4.8 0.00 0.00 0.00 34 1009.8
20260503181832 24 212 1.6 4.8 0.00 0.00 0.00 33 1009.8
20260503181314 24 210 1.6 4.8 0.00 0.00 0.00 33 1009.8
20260503180838 24 214 1.6 4.8 0.00 0.00 0.00 32 1009.8
20260503180317 25 233 3.2 4.8 0.00 0.00 0.00 32 1009.8
20260503175817 25 205 3.2 8.0 0.00 0.00 0.00 31 1009.7
20260503175317 25 241 3.2 8.0 0.00 0.00 0.00 31 1009.7
20260503174838 25 217 3.2 6.4 0.00 0.00 0.00 31 1009.7
20260503174338 25 222 3.2 6.4 0.00 0.00 0.00 30 1009.7
20260503173820 25 207 1.6 3.2 0.00 0.00 0.00 30 1009.7
20260503173323 26 238 1.6 4.8 0.00 0.00 0.00 30 1009.7
20260503172825 26 211 1.6 6.4 0.00 0.00 0.00 29 1009.7
20260503172327 26 191 1.6 6.4 0.00 0.00 0.00 29 1009.7
20260503171826 26 214 1.6 6.4 0.00 0.00 0.00 29 1009.7
20260503171327 26 182 3.2 11.3 0.00 0.00 0.00 28 1009.7
20260503170840 26 167 3.2 11.3 0.00 0.00 0.00 28 1009.7
20260503170340 27 261 4.8 11.3 0.00 0.00 0.00 28 1009.7
20260503150822 28 217 6.4 12.9 0.00 0.00 0.00 27 1010.1
20260503150327 28 186 6.4 12.9 0.00 0.00 0.00 26 1010.2
20260503131316 28 226 9.7 22.5 0.00 0.00 0.00 26 1011.4
20260503130836 28 255 3.2 20.9 0.00 0.00 0.00 27 1011.4
20260503130318 28 289 9.7 17.7 0.00 0.00 0.00 26 1011.7
20260503110829 27 259 8.0 17.7 0.00 0.00 0.00 28 1012.6
20260503110333 27 240 11.3 20.9 0.00 0.00 0.00 28 1012.6
20260503090314 25 271 11.3 20.9 0.00 0.00 0.00 35 1013.7
20260503081350 23 259 8.0 22.5 0.00 0.00 0.00 37 1013.8
20260503080852 23 192 11.3 22.5 0.00 0.00 0.00 38 1013.8
20260503080313 23 274 9.7 16.1 0.00 0.00 0.00 38 1013.8
20260503072822 22 253 4.8 8.0 0.00 0.00 0.00 43 1013.8
20260503072322 21 241 3.2 9.7 0.00 0.00 0.00 44 1013.8
20260503071822 21 202 3.2 11.3 0.00 0.00 0.00 46 1013.8
20260503071345 21 227 3.2 8.0 0.00 0.00 0.00 46 1013.8
20260503070824 20 181 3.2 9.7 0.00 0.00 0.00 46 1013.9
20260503070324 20 219 3.2 9.7 0.00 0.00 0.00 46 1013.9
20260503060313 17 124 4.8 9.7 0.00 0.00 0.00 53 1013.8
20260503054345 15 269 3.2 225.3 0.00 0.00 0.00 59 1013.8
20260503053824 15 187 3.2 6.4 0.00 0.00 0.00 60 1013.8
20260503053346 14 209 1.6 3.2 0.00 0.00 0.00 61 1013.9
20260503052848 13 202 1.6 3.2 0.00 0.00 0.00 62 1013.8
20260503052330 13 194 0.0 1.6 0.00 0.00 0.00 63 1013.8
20260503051812 13 194 0.0 1.6 0.00 0.00 0.00 64 1013.8
20260503051315 12 194 0.0 1.6 0.00 0.00 0.00 64 1013.8
20260503050817 12 194 0.0 0.0 0.00 0.00 0.00 65 1013.8
20260503050320 12 194 0.0 0.0 0.00 0.00 0.00 66 1013.8
20260503045824 12 194 0.0 0.0 0.00 0.00 0.00 65 1013.8
20260503045325 11 194 0.0 0.0 0.00 0.00 0.00 66 1013.8
20260503044828 11 194 0.0 0.0 0.00 0.00 0.00 67 1013.8
20260503044328 11 194 0.0 0.0 0.00 0.00 0.00 68 1013.7
20260503043829 11 194 0.0 0.0 0.00 0.00 0.00 69 1013.8
20260503043314 10 194 0.0 0.0 0.00 0.00 0.00 69 1013.7
20260503042815 10 194 0.0 0.0 0.00 0.00 0.00 71 1013.7
20260503042316 10 194 0.0 0.0 0.00 0.00 0.00 72 1013.8
20260503041839 10 194 0.0 0.0 0.00 0.00 0.00 72 1013.8
20260503041321 10 194 0.0 0.0 0.00 0.00 0.00 73 1013.8
20260503040822 10 194 0.0 0.0 0.00 0.00 0.00 74 1013.8
20260503040323 9 194 0.0 0.0 0.00 0.00 0.00 75 1013.8
20260503035824 8 194 0.0 0.0 0.00 0.00 0.00 76 1013.8
20260503035324 8 194 0.0 0.0 0.00 0.00 0.00 75 1013.8
20260503034824 8 194 0.0 0.0 0.00 0.00 0.00 74 1013.8
20260503034320 8 194 0.0 0.0 0.00 0.00 0.00 74 1013.8
20260503033824 8 194 0.0 0.0 0.00 0.00 0.00 75 1013.8
20260503033327 8 194 0.0 0.0 0.00 0.00 0.00 75 1013.8
20260503032822 8 194 0.0 0.0 0.00 0.00 0.00 74 1013.8
20260503032326 8 194 0.0 0.0 0.00 0.00 0.00 74 1013.8
20260503031829 8 194 0.0 0.0 0.00 0.00 0.00 73 1013.8
20260503031329 8 194 0.0 0.0 0.00 0.00 0.00 72 1013.8
20260503030830 9 194 0.0 0.0 0.00 0.00 0.00 71 1013.8
20260503030330 9 194 0.0 0.0 0.00 0.00 0.00 71 1013.9
20260503025829 9 194 0.0 0.0 0.00 0.00 0.00 71 1013.8
20260503025330 9 194 0.0 0.0 0.00 0.00 0.00 70 1013.9
20260503024812 10 194 0.0 0.0 0.00 0.00 0.00 70 1013.9
20260503024315 10 194 0.0 0.0 0.00 0.00 0.00 70 1014.0
20260503023818 10 194 0.0 0.0 0.00 0.00 0.00 70 1014.0
20260503023320 10 194 0.0 0.0 0.00 0.00 0.00 70 1014.0
20260503022823 10 194 0.0 0.0 0.00 0.00 0.00 69 1014.0
20260503022326 10 194 0.0 0.0 0.00 0.00 0.00 68 1014.0
20260503021850 10 194 0.0 0.0 0.00 0.00 0.00 68 1014.0
20260503021331 10 194 0.0 0.0 0.00 0.00 0.00 68 1014.1
20260503020812 10 194 0.0 0.0 0.00 0.00 0.00 67 1014.1
20260503020314 11 194 0.0 0.0 0.00 0.00 0.00 66 1014.1
20260503015817 11 194 0.0 0.0 0.00 0.00 0.00 64 1014.0
20260503015320 11 194 0.0 0.0 0.00 0.00 0.00 63 1014.1
20260503014825 11 194 0.0 0.0 0.00 0.00 0.00 63 1014.1
20260503014320 10 194 0.0 0.0 0.00 0.00 0.00 63 1014.2
20260503013841 11 194 0.0 0.0 0.00 0.00 0.00 63 1014.2
20260503013320 11 194 0.0 0.0 0.00 0.00 0.00 62 1014.3
20260503012821 11 194 0.0 0.0 0.00 0.00 0.00 61 1014.3
20260503012407 11 194 0.0 0.0 0.00 0.00 0.00 60 1014.4
20260503011823 11 194 0.0 0.0 0.00 0.00 0.00 58 1014.4
20260503011324 12 194 0.0 0.0 0.00 0.00 0.00 58 1014.4
20260503010824 12 194 0.0 0.0 0.00 0.00 0.00 58 1014.4
20260503010323 12 194 0.0 0.0 0.00 0.00 0.00 57 1014.4
20260503005823 12 194 0.0 0.0 0.00 0.00 0.00 57 1014.5
20260503005324 12 194 0.0 1.6 0.00 0.00 0.00 56 1014.5